• în România
  • Lista ţărilor
  • Pe 7 zile
  • Temperatura apei
  • Hartă satelitară
  • Meteo pe hartă
  • Widget-uri
  • user-avatar
    Intrare

    Meteo pe oră la Maloe Sidelnikovo

    Astăzi, 19 Iulie, Joi

    Timp Temperatura Precipitaţii Vânt Presiune Umiditate
    00:00 +20°C° 0 mm 4 m/s 743 mmHg 77%
    01:00 +19°C° 0 mm 4 m/s 743 mmHg 77%
    02:00 +19°C° 0 mm 3 m/s 743 mmHg 80%
    03:00 +19°C° 0 mm 4 m/s 743 mmHg 79%
    04:00 +19°C° 0 mm 4 m/s 743 mmHg 79%
    05:00 +19°C° 0 mm 4 m/s 744 mmHg 78%
    06:00 +20°C° 0 mm 4 m/s 744 mmHg 74%
    07:00 +22°C° 0 mm 5 m/s 743 mmHg 69%
    08:00 +23°C° 0 mm 5 m/s 743 mmHg 65%
    09:00 +25°C° 0,1 mm 5 m/s 743 mmHg 61%
    10:00 +26°C° 0,1 mm 6 m/s 743 mmHg 57%
    11:00 +27°C° 0,1 mm 6 m/s 743 mmHg 53%
    12:00 +27°C° 0,3 mm 6 m/s 743 mmHg 55%
    13:00 +27°C° 0,3 mm 6 m/s 743 mmHg 57%
    14:00 +27°C° 0,3 mm 6 m/s 743 mmHg 59%
    15:00 +26°C° 0,2 mm 6 m/s 743 mmHg 62%
    16:00 +26°C° 0,2 mm 5 m/s 743 mmHg 66%
    17:00 +25°C° 0,2 mm 5 m/s 743 mmHg 69%
    18:00 +23°C° 0,1 mm 5 m/s 743 mmHg 75%
    19:00 +22°C° 0,1 mm 4 m/s 743 mmHg 80%
    20:00 +21°C° 0,1 mm 4 m/s 743 mmHg 85%
    21:00 +20°C° 0 mm 4 m/s 743 mmHg 87%
    22:00 +20°C° 0 mm 4 m/s 743 mmHg 90%
    23:00 +19°C° 0 mm 4 m/s 743 mmHg 93%

    Mâine, 20 Iulie, Vineri

    Timp Temperatura Precipitaţii Vânt Presiune Umiditate
    00:00 +19°C° 0 mm 4 m/s 742 mmHg 92%
    01:00 +19°C° 0 mm 4 m/s 742 mmHg 92%
    02:00 +20°C° 0 mm 4 m/s 742 mmHg 91%
    03:00 +19°C° 0,1 mm 4 m/s 742 mmHg 91%
    04:00 +19°C° 0,1 mm 4 m/s 742 mmHg 92%
    05:00 +19°C° 0,1 mm 4 m/s 742 mmHg 92%
    06:00 +20°C° 0,1 mm 4 m/s 742 mmHg 91%
    07:00 +20°C° 0,1 mm 4 m/s 742 mmHg 89%
    08:00 +20°C° 0,1 mm 4 m/s 742 mmHg 88%
    09:00 +20°C° 0 mm 4 m/s 742 mmHg 87%
    10:00 +20°C° 0 mm 4 m/s 742 mmHg 86%
    11:00 +21°C° 0 mm 4 m/s 742 mmHg 85%
    12:00 +21°C° 0 mm 4 m/s 742 mmHg 83%
    13:00 +22°C° 0 mm 4 m/s 742 mmHg 82%
    14:00 +22°C° 0 mm 4 m/s 742 mmHg 80%
    15:00 +22°C° 0,1 mm 4 m/s 742 mmHg 80%
    16:00 +23°C° 0,1 mm 4 m/s 742 mmHg 79%
    17:00 +23°C° 0,1 mm 4 m/s 742 mmHg 79%
    18:00 +22°C° 0,2 mm 4 m/s 742 mmHg 82%
    19:00 +22°C° 0,2 mm 3 m/s 742 mmHg 86%
    20:00 +21°C° 0,2 mm 3 m/s 742 mmHg 89%
    21:00 +20°C° 0 mm 3 m/s 742 mmHg 90%
    22:00 +20°C° 0 mm 3 m/s 742 mmHg 91%
    23:00 +20°C° 0 mm 3 m/s 742 mmHg 92%

    Poimâine, 21 Iulie, Sâmbătă

    Timp Temperatura Precipitaţii Vânt Presiune Umiditate
    00:00 +20°C° 0,1 mm 4 m/s 742 mmHg 93%
    01:00 +19°C° 0,1 mm 4 m/s 742 mmHg 94%
    02:00 +19°C° 0,1 mm 4 m/s 742 mmHg 95%
    03:00 +19°C° 0,3 mm 4 m/s 742 mmHg 95%
    04:00 +20°C° 0,3 mm 4 m/s 742 mmHg 94%
    05:00 +20°C° 0,3 mm 4 m/s 742 mmHg 94%
    06:00 +20°C° 0,2 mm 4 m/s 742 mmHg 93%
    07:00 +20°C° 0,2 mm 4 m/s 742 mmHg 92%
    08:00 +20°C° 0,2 mm 4 m/s 742 mmHg 92%
    09:00 +21°C° 0,3 mm 4 m/s 742 mmHg 91%
    10:00 +21°C° 0,3 mm 4 m/s 742 mmHg 91%
    11:00 +21°C° 0,3 mm 4 m/s 743 mmHg 91%
    12:00 +22°C° 0 mm 4 m/s 743 mmHg 88%
    13:00 +22°C° 0 mm 4 m/s 742 mmHg 86%
    14:00 +23°C° 0 mm 4 m/s 742 mmHg 83%
    15:00 +25°C° 0,1 mm 4 m/s 742 mmHg 80%
    16:00 +26°C° 0,1 mm 4 m/s 742 mmHg 77%
    17:00 +26°C° 0,1 mm 4 m/s 742 mmHg 73%
    18:00 +25°C° 0,4 mm 4 m/s 742 mmHg 78%
    19:00 +24°C° 0,4 mm 3 m/s 742 mmHg 83%
    20:00 +22°C° 0,4 mm 3 m/s 742 mmHg 88%
    21:00 +22°C° 0,1 mm 3 m/s 742 mmHg 90%
    22:00 +21°C° 0,1 mm 3 m/s 742 mmHg 92%
    23:00 +21°C° 0,1 mm 3 m/s 743 mmHg 94%

    22 Iulie, Duminică

    Timp Temperatura Precipitaţii Vânt Presiune Umiditate
    00:00 +20°C° 0 mm 4 m/s 743 mmHg 95%
    01:00 +20°C° 0 mm 4 m/s 743 mmHg 95%
    02:00 +20°C° 0 mm 4 m/s 743 mmHg 96%
    03:00 +19°C° 0 mm 4 m/s 743 mmHg 95%
    04:00 +19°C° 0 mm 3 m/s 743 mmHg 95%
    05:00 +19°C° 0 mm 3 m/s 743 mmHg 95%
    06:00 +19°C° 0 mm 3 m/s 743 mmHg 93%
    07:00 +20°C° 0 mm 3 m/s 743 mmHg 92%
    08:00 +20°C° 0 mm 3 m/s 743 mmHg 90%
    09:00 +21°C° 0 mm 3 m/s 743 mmHg 87%
    10:00 +21°C° 0 mm 4 m/s 743 mmHg 83%
    11:00 +22°C° 0 mm 4 m/s 743 mmHg 80%
    12:00 +22°C° 0 mm 4 m/s 743 mmHg 79%
    13:00 +23°C° 0 mm 4 m/s 743 mmHg 78%
    14:00 +23°C° 0 mm 4 m/s 743 mmHg 78%
    15:00 +24°C° 0,1 mm 3 m/s 742 mmHg 78%
    16:00 +25°C° 0,1 mm 3 m/s 742 mmHg 78%
    17:00 +25°C° 0,1 mm 3 m/s 742 mmHg 78%
    18:00 +24°C° 0,4 mm 2 m/s 742 mmHg 83%
    19:00 +23°C° 0,4 mm 2 m/s 742 mmHg 87%
    20:00 +21°C° 0,4 mm 2 m/s 742 mmHg 92%
    21:00 +21°C° 0,3 mm 2 m/s 742 mmHg 93%
    22:00 +20°C° 0,3 mm 3 m/s 743 mmHg 94%
    23:00 +20°C° 0,3 mm 3 m/s 743 mmHg 95%

    23 Iulie, Luni

    Timp Temperatura Precipitaţii Vânt Presiune Umiditate
    00:00 +20°C° 0 mm 3 m/s 743 mmHg 96%
    01:00 +19°C° 0 mm 3 m/s 743 mmHg 97%
    02:00 +19°C° 0 mm 3 m/s 743 mmHg 98%
    03:00 +19°C° 0 mm 3 m/s 743 mmHg 97%
    04:00 +19°C° 0 mm 3 m/s 743 mmHg 96%
    05:00 +20°C° 0 mm 4 m/s 743 mmHg 95%
    06:00 +20°C° 0 mm 4 m/s 743 mmHg 94%
    07:00 +20°C° 0 mm 4 m/s 743 mmHg 93%
    08:00 +20°C° 0 mm 4 m/s 743 mmHg 92%
    09:00 +20°C° 0 mm 4 m/s 743 mmHg 91%
    10:00 +21°C° 0 mm 4 m/s 743 mmHg 90%
    11:00 +21°C° 0 mm 4 m/s 743 mmHg 89%
    12:00 +21°C° 0 mm 4 m/s 743 mmHg 87%
    13:00 +22°C° 0 mm 4 m/s 743 mmHg 85%
    14:00 +22°C° 0 mm 4 m/s 743 mmHg 84%
    15:00 +23°C° 0,1 mm 4 m/s 743 mmHg 81%
    16:00 +24°C° 0,1 mm 3 m/s 743 mmHg 79%
    17:00 +25°C° 0,1 mm 3 m/s 743 mmHg 77%
    18:00 +24°C° 0,9 mm 3 m/s 743 mmHg 82%
    19:00 +22°C° 0,9 mm 3 m/s 743 mmHg 87%
    20:00 +21°C° 0,9 mm 3 m/s 743 mmHg 92%
    21:00 +21°C° 0,7 mm 3 m/s 743 mmHg 93%
    22:00 +20°C° 0,7 mm 3 m/s 743 mmHg 95%
    23:00 +20°C° 0,7 mm 3 m/s 743 mmHg 96%

    24 Iulie, Marţi

    Timp Temperatura Precipitaţii Vânt Presiune Umiditate
    00:00 +19°C° 0,3 mm 3 m/s 743 mmHg 96%
    01:00 +19°C° 0,3 mm 3 m/s 743 mmHg 96%
    02:00 +19°C° 0,3 mm 4 m/s 743 mmHg 96%
    03:00 +19°C° 0,1 mm 4 m/s 744 mmHg 96%
    04:00 +19°C° 0,1 mm 4 m/s 744 mmHg 95%
    05:00 +19°C° 0,1 mm 4 m/s 744 mmHg 95%
    06:00 +19°C° 0 mm 4 m/s 744 mmHg 93%
    07:00 +20°C° 0 mm 4 m/s 744 mmHg 90%
    08:00 +20°C° 0 mm 4 m/s 744 mmHg 88%
    09:00 +21°C° 0 mm 4 m/s 745 mmHg 86%
    10:00 +21°C° 0 mm 4 m/s 745 mmHg 83%
    11:00 +22°C° 0 mm 4 m/s 745 mmHg 81%
    12:00 +23°C° 0 mm 4 m/s 745 mmHg 79%
    13:00 +23°C° 0 mm 4 m/s 745 mmHg 76%
    14:00 +25°C° 0 mm 4 m/s 745 mmHg 74%
    15:00 +25°C° 0 mm 4 m/s 745 mmHg 74%
    16:00 +25°C° 0 mm 4 m/s 745 mmHg 75%
    17:00 +25°C° 0 mm 4 m/s 745 mmHg 75%
    18:00 +24°C° 0 mm 3 m/s 745 mmHg 78%
    19:00 +22°C° 0 mm 3 m/s 745 mmHg 82%
    20:00 +21°C° 0 mm 3 m/s 745 mmHg 85%
    21:00 +21°C° 0 mm 3 m/s 745 mmHg 88%
    22:00 +20°C° 0 mm 2 m/s 745 mmHg 91%
    23:00 +20°C° 0 mm 2 m/s 745 mmHg 94%
    Arată mai mult